Location: Baumgarten
(49.0970°N, 12.7493°E)
Time: 02:56:32
(UTC+00:00)

Cosmos 332 Rocket - Pass Details

Date: 05 July 2020
Orbit: 682 x 703 km, 74.0° (Epoch: 04 August)

Event Time Altitude Azimuth Distance (km) Brightness Sun altitude
Rises 23:12:32 0° 334° (NNW) 3,057 8.3 -18.2°
Reaches altitude 10° 23:14:51 10° 332° (NNW) 2,137 7.2 -18.2°
Maximum altitude 23:19:37 69° 251° (WSW) 736 3.8 -18.2°
Enters shadow 23:21:28 37° 179° (S) 1,067 4.2 -18.2°
